Wetterdaten: Mittwoch, 07.11.2012
Datum Zeit Temperatur Luftfeuchte Regen Wind Richtung Richtung Taupunkt Windchill Windben
07.11.2012 00:00 -1,5 C 97 % 0,0 l/m 0,5 km/h (0 Bft) N 360 -1,9 C -2,3 C 2,1 km/h (1 Bft)
07.11.2012 00:05 -1,5 C 97 % 0,0 l/m 0,8 km/h (0 Bft) N 360 -1,9 C -2,3 C 0,0 km/h (0 Bft)
07.11.2012 00:10 -1,5 C 97 % 0,0 l/m 0,8 km/h (0 Bft) N 360 -1,9 C -2,3 C 1,6 km/h (1 Bft)
07.11.2012 00:15 -1,6 C 97 % 0,0 l/m 0,6 km/h (0 Bft) N 360 -2,0 C -2,3 C 1,6 km/h (1 Bft)
07.11.2012 00:20 -1,6 C 97 % 0,0 l/m 0,3 km/h (0 Bft) N 360 -2,0 C -2,4 C 0,0 km/h (0 Bft)
07.11.2012 00:25 -1,6 C 97 % 0,0 l/m 0,3 km/h (0 Bft) N 360 -2,0 C -2,4 C 1,6 km/h (1 Bft)
07.11.2012 00:30 -1,5 C 97 % 0,0 l/m 0,3 km/h (0 Bft) N 360 -1,9 C -2,4 C 3,4 km/h (1 Bft)
07.11.2012 00:35 -1,6 C 97 % 0,0 l/m 0,3 km/h (0 Bft) N 360 -2,0 C -2,5 C 0,0 km/h (0 Bft)
07.11.2012 00:40 -1,5 C 97 % 0,0 l/m 0,2 km/h (0 Bft) N 360 -1,9 C -2,5 C 0,0 km/h (0 Bft)
07.11.2012 00:45 -1,5 C 97 % 0,0 l/m 0,5 km/h (0 Bft) N 360 -1,9 C -2,5 C 1,8 km/h (1 Bft)
07.11.2012 00:50 -1,4 C 97 % 0,0 l/m 0,8 km/h (0 Bft) N 360 -1,8 C -2,4 C 1,8 km/h (1 Bft)
07.11.2012 00:55 -1,4 C 97 % 0,0 l/m 0,8 km/h (0 Bft) N 360 -1,8 C -2,4 C 0,0 km/h (0 Bft)
07.11.2012 01:00 -1,6 C 97 % 0,0 l/m 0,8 km/h (0 Bft) N 360 -2,0 C -2,4 C 2,7 km/h (1 Bft)
07.11.2012 01:05 -1,4 C 97 % 0,0 l/m 0,8 km/h (0 Bft) N 360 -1,8 C -2,4 C 1,6 km/h (1 Bft)
07.11.2012 01:10 -1,4 C 97 % 0,0 l/m 1,3 km/h (1 Bft) N 360 -1,8 C -2,3 C 5,5 km/h (1 Bft)
07.11.2012 01:15 -1,4 C 97 % 0,0 l/m 1,0 km/h (0 Bft) N 360 -1,8 C -2,3 C 0,0 km/h (0 Bft)
07.11.2012 01:20 -1,6 C 97 % 0,0 l/m 0,3 km/h (0 Bft) N 360 -2,0 C -2,5 C 0,0 km/h (0 Bft)
07.11.2012 01:25 -1,7 C 97 % 0,0 l/m 0,6 km/h (0 Bft) N 360 -2,1 C -2,6 C 0,0 km/h (0 Bft)
07.11.2012 01:30 -1,9 C 97 % 0,0 l/m 0,5 km/h (0 Bft) N 360 -2,3 C -2,7 C 0,0 km/h (0 Bft)
07.11.2012 01:35 -2,1 C 97 % 0,0 l/m 0,2 km/h (0 Bft) N 360 -2,5 C -2,9 C 1,9 km/h (1 Bft)
07.11.2012 01:40 -2,1 C 97 % 0,0 l/m 0,2 km/h (0 Bft) N 360 -2,5 C -2,9 C 0,0 km/h (0 Bft)
07.11.2012 01:45 -2,4 C 97 % 0,0 l/m 0,3 km/h (0 Bft) N 360 -2,8 C -3,1 C 2,3 km/h (1 Bft)
07.11.2012 01:50 -2,4 C 97 % 0,0 l/m 0,6 km/h (0 Bft) N 360 -2,8 C -3,1 C 2,3 km/h (1 Bft)
07.11.2012 01:55 -2,4 C 97 % 0,0 l/m 0,6 km/h (0 Bft) N 360 -2,8 C -3,1 C 0,0 km/h (0 Bft)
07.11.2012 02:00 -2,3 C 97 % 0,0 l/m 0,5 km/h (0 Bft) N 360 -2,7 C -3,2 C 0,0 km/h (0 Bft)
07.11.2012 02:05 -2,2 C 97 % 0,0 l/m 0,3 km/h (0 Bft) N 360 -2,6 C -3,2 C 0,0 km/h (0 Bft)
07.11.2012 02:10 -2,2 C 97 % 0,0 l/m 0,3 km/h (0 Bft) N 360 -2,6 C -3,2 C 0,0 km/h (0 Bft)
07.11.2012 02:15 -2,2 C 97 % 0,0 l/m 0,3 km/h (0 Bft) N 360 -2,6 C -3,2 C 0,0 km/h (0 Bft)
07.11.2012 02:20 -2,1 C 97 % 0,0 l/m 0,3 km/h (0 Bft) N 360 -2,5 C -3,1 C 2,6 km/h (1 Bft)
07.11.2012 02:25 -2,0 C 97 % 0,0 l/m 0,3 km/h (0 Bft) N 360 -2,4 C -3,0 C 0,0 km/h (0 Bft)
07.11.2012 02:30 -2,0 C 97 % 0,0 l/m 0,5 km/h (0 Bft) N 360 -2,4 C -3,0 C 2,3 km/h (1 Bft)
07.11.2012 02:35 -1,9 C 97 % 0,0 l/m 1,0 km/h (0 Bft) N 360 -2,3 C -3,0 C 1,8 km/h (1 Bft)
07.11.2012 02:40 -1,6 C 97 % 0,0 l/m 1,8 km/h (1 Bft) N 360 -2,0 C -2,7 C 4,3 km/h (1 Bft)
07.11.2012 02:45 -1,7 C 97 % 0,0 l/m 1,6 km/h (1 Bft) N 360 -2,1 C -2,6 C 2,9 km/h (1 Bft)
07.11.2012 02:50 -1,8 C 97 % 0,0 l/m 0,8 km/h (0 Bft) N 360 -2,2 C -2,7 C 0,0 km/h (0 Bft)
07.11.2012 02:55 -2,0 C 97 % 0,0 l/m 0,3 km/h (0 Bft) N 360 -2,4 C -2,8 C 0,0 km/h (0 Bft)
07.11.2012 03:00 -2,0 C 97 % 0,0 l/m 0,3 km/h (0 Bft) N 360 -2,4 C -3,0 C 0,0 km/h (0 Bft)
07.11.2012 03:05 -1,9 C 97 % 0,0 l/m 0,3 km/h (0 Bft) N 360 -2,3 C -2,9 C 0,0 km/h (0 Bft)
07.11.2012 03:10 -2,1 C 97 % 0,0 l/m 0,6 km/h (0 Bft) N 360 -2,5 C -3,0 C 3,2 km/h (1 Bft)
07.11.2012 03:15 -1,8 C 97 % 0,0 l/m 0,8 km/h (0 Bft) N 360 -2,2 C -2,9 C 0,0 km/h (0 Bft)
07.11.2012 03:20 -1,8 C 97 % 0,0 l/m 0,8 km/h (0 Bft) N 360 -2,2 C -2,9 C 1,6 km/h (1 Bft)
07.11.2012 03:25 -2,0 C 97 % 0,0 l/m 0,6 km/h (0 Bft) N 360 -2,4 C -2,9 C 0,0 km/h (0 Bft)
07.11.2012 03:30 -2,0 C 97 % 0,0 l/m 0,5 km/h (0 Bft) N 360 -2,4 C -3,0 C 1,6 km/h (1 Bft)
07.11.2012 03:35 -2,2 C 97 % 0,0 l/m 0,5 km/h (0 Bft) N 360 -2,6 C -3,1 C 3,1 km/h (1 Bft)
07.11.2012 03:40 -2,2 C 96 % 0,0 l/m 0,6 km/h (0 Bft) N 360 -2,7 C -3,1 C 0,0 km/h (0 Bft)
07.11.2012 03:45 -2,4 C 96 % 0,0 l/m 0,5 km/h (0 Bft) N 360 -2,9 C -3,1 C 0,0 km/h (0 Bft)
07.11.2012 03:50 -2,5 C 96 % 0,0 l/m 0,3 km/h (0 Bft) N 360 -3,0 C -3,2 C 2,1 km/h (1 Bft)
07.11.2012 03:55 -2,4 C 96 % 0,0 l/m 0,5 km/h (0 Bft) N 360 -2,9 C -3,2 C 1,8 km/h (1 Bft)
07.11.2012 04:00 -2,2 C 96 % 0,0 l/m 1,1 km/h (1 Bft) N 360 -2,7 C -3,1 C 0,0 km/h (0 Bft)
07.11.2012 04:05 -2,1 C 96 % 0,0 l/m 1,1 km/h (1 Bft) N 360 -2,6 C -3,0 C 0,0 km/h (0 Bft)
07.11.2012 04:10 -1,9 C 96 % 0,0 l/m 0,5 km/h (0 Bft) N 360 -2,5 C -2,9 C 0,0 km/h (0 Bft)
07.11.2012 04:15 -1,6 C 96 % 0,0 l/m 0,5 km/h (0 Bft) N 360 -2,2 C -2,7 C 3,1 km/h (1 Bft)
07.11.2012 04:20 -1,5 C 96 % 0,0 l/m 0,6 km/h (0 Bft) N 360 -2,1 C -2,2 C 0,0 km/h (0 Bft)
07.11.2012 04:25 -1,2 C 97 % 0,0 l/m 0,5 km/h (0 Bft) N 360 -1,6 C -2,1 C 0,0 km/h (0 Bft)
07.11.2012 04:30 -1,2 C 97 % 0,0 l/m 0,3 km/h (0 Bft) N 360 -1,6 C -1,9 C 2,3 km/h (1 Bft)
07.11.2012 04:35 -1,2 C 97 % 0,0 l/m 0,5 km/h (0 Bft) N 360 -1,6 C -1,8 C 0,0 km/h (0 Bft)
07.11.2012 04:40 -1,2 C 97 % 0,0 l/m 0,6 km/h (0 Bft) N 360 -1,6 C -1,8 C 2,1 km/h (1 Bft)
07.11.2012 04:45 -1,2 C 97 % 0,0 l/m 0,8 km/h (0 Bft) N 360 -1,6 C -1,7 C 0,0 km/h (0 Bft)
07.11.2012 04:50 -1,2 C 97 % 0,0 l/m 1,3 km/h (1 Bft) N 360 -1,6 C -1,7 C 2,7 km/h (1 Bft)
07.11.2012 04:55 -1,1 C 97 % 0,0 l/m 1,3 km/h (1 Bft) N 360 -1,5 C -1,7 C 2,1 km/h (1 Bft)
07.11.2012 05:00 -1,0 C 97 % 0,0 l/m 1,6 km/h (1 Bft) N 360 -1,4 C -1,6 C 1,9 km/h (1 Bft)
07.11.2012 05:05 -1,0 C 97 % 0,0 l/m 1,9 km/h (1 Bft) N 360 -1,4 C -1,6 C 5,3 km/h (1 Bft)
07.11.2012 05:10 -1,0 C 97 % 0,0 l/m 3,1 km/h (1 Bft) N 360 -1,4 C -2,3 C 3,4 km/h (1 Bft)
07.11.2012 05:15 -1,0 C 97 % 0,0 l/m 3,5 km/h (1 Bft) N 360 -1,4 C -2,6 C 3,9 km/h (1 Bft)
07.11.2012 05:20 -1,1 C 97 % 0,0 l/m 2,7 km/h (1 Bft) N 360 -1,5 C -2,0 C 3,1 km/h (1 Bft)
07.11.2012 05:25 -1,1 C 97 % 0,0 l/m 2,3 km/h (1 Bft) N 360 -1,5 C -1,7 C 2,7 km/h (1 Bft)
07.11.2012 05:30 -1,0 C 97 % 0,0 l/m 1,8 km/h (1 Bft) N 360 -1,4 C -1,7 C 3,7 km/h (1 Bft)
07.11.2012 05:35 -1,0 C 97 % 0,0 l/m 1,6 km/h (1 Bft) N 360 -1,4 C -1,7 C 3,1 km/h (1 Bft)
07.11.2012 05:40 -1,0 C 97 % 0,0 l/m 1,8 km/h (1 Bft) N 360 -1,4 C -1,6 C 1,6 km/h (1 Bft)
07.11.2012 05:45 -0,9 C 97 % 0,0 l/m 2,1 km/h (1 Bft) N 360 -1,3 C -1,6 C 4,3 km/h (1 Bft)
07.11.2012 05:50 -0,8 C 97 % 0,0 l/m 2,3 km/h (1 Bft) N 360 -1,2 C -1,5 C 7,6 km/h (2 Bft)
07.11.2012 05:55 -0,8 C 97 % 0,0 l/m 2,3 km/h (1 Bft) N 360 -1,2 C -1,5 C 2,6 km/h (1 Bft)
07.11.2012 06:00 -0,8 C 97 % 0,0 l/m 1,9 km/h (1 Bft) N 360 -1,2 C -1,4 C 3,2 km/h (1 Bft)
07.11.2012 06:05 -0,8 C 97 % 0,0 l/m 2,3 km/h (1 Bft) N 360 -1,2 C -1,4 C 3,7 km/h (1 Bft)
07.11.2012 06:10 -0,6 C 97 % 0,0 l/m 2,4 km/h (1 Bft) N 360 -1,0 C -1,4 C 4,3 km/h (1 Bft)
07.11.2012 06:15 -0,5 C 97 % 0,0 l/m 2,7 km/h (1 Bft) N 360 -0,9 C -1,6 C 3,2 km/h (1 Bft)
07.11.2012 06:20 -0,5 C 97 % 0,0 l/m 4,3 km/h (1 Bft) N 360 -0,9 C -2,5 C 10,0 km/h (2 Bft)
07.11.2012 06:25 -0,5 C 97 % 0,0 l/m 4,7 km/h (1 Bft) N 360 -0,9 C -2,7 C 4,2 km/h (1 Bft)
07.11.2012 06:30 -0,4 C 97 % 0,0 l/m 3,7 km/h (1 Bft) N 360 -0,8 C -2,0 C 9,0 km/h (2 Bft)
07.11.2012 06:35 -0,2 C 97 % 0,0 l/m 3,2 km/h (1 Bft) N 360 -0,6 C -1,7 C 3,1 km/h (1 Bft)
07.11.2012 06:40 -0,2 C 97 % 0,0 l/m 3,4 km/h (1 Bft) N 360 -0,6 C -1,7 C 4,0 km/h (1 Bft)
07.11.2012 06:45 -0,2 C 97 % 0,0 l/m 3,4 km/h (1 Bft) N 360 -0,6 C -1,7 C 4,3 km/h (1 Bft)
07.11.2012 06:50 -0,1 C 97 % 0,0 l/m 3,7 km/h (1 Bft) N 360 -0,5 C -1,8 C 5,1 km/h (1 Bft)
07.11.2012 06:55 -0,1 C 97 % 0,0 l/m 3,9 km/h (1 Bft) N 360 -0,5 C -1,8 C 6,8 km/h (2 Bft)
07.11.2012 07:00 0,0 C 97 % 0,0 l/m 4,0 km/h (1 Bft) N 360 -0,4 C -1,9 C 4,0 km/h (1 Bft)
07.11.2012 07:05 -0,1 C 97 % 0,0 l/m 3,4 km/h (1 Bft) N 360 -0,5 C -1,5 C 2,3 km/h (1 Bft)
07.11.2012 07:10 -0,1 C 97 % 0,0 l/m 2,1 km/h (1 Bft) N 360 -0,5 C -0,7 C 1,9 km/h (1 Bft)
07.11.2012 07:15 -0,1 C 97 % 0,0 l/m 1,4 km/h (1 Bft) N 360 -0,5 C -0,7 C 1,9 km/h (1 Bft)
07.11.2012 07:20 0,0 C 97 % 0,0 l/m 0,8 km/h (0 Bft) N 360 -0,4 C -0,7 C 2,3 km/h (1 Bft)
07.11.2012 07:25 0,0 C 97 % 0,0 l/m 1,0 km/h (0 Bft) N 360 -0,4 C -0,7 C 1,6 km/h (1 Bft)
07.11.2012 07:30 0,1 C 97 % 0,0 l/m 2,1 km/h (1 Bft) N 360 -0,3 C -0,6 C 4,3 km/h (1 Bft)
07.11.2012 07:35 0,1 C 97 % 0,0 l/m 2,1 km/h (1 Bft) N 360 -0,3 C -0,6 C 6,4 km/h (2 Bft)
07.11.2012 07:40 0,2 C 97 % 0,0 l/m 2,6 km/h (1 Bft) N 360 -0,2 C -0,7 C 3,7 km/h (1 Bft)
07.11.2012 07:45 0,3 C 97 % 0,0 l/m 2,7 km/h (1 Bft) N 360 -0,1 C -0,8 C 4,8 km/h (1 Bft)
07.11.2012 07:50 0,3 C 97 % 0,0 l/m 2,9 km/h (1 Bft) N 360 -0,1 C -0,7 C 3,9 km/h (1 Bft)
07.11.2012 07:55 0,4 C 97 % 0,0 l/m 3,5 km/h (1 Bft) N 360 -0,0 C -1,1 C 3,4 km/h (1 Bft)
07.11.2012 08:00 0,4 C 97 % 0,0 l/m 3,9 km/h (1 Bft) N 360 -0,0 C -1,1 C 3,2 km/h (1 Bft)
07.11.2012 08:05 0,5 C 97 % 0,0 l/m 3,2 km/h (1 Bft) N 360 0,1 C -0,6 C 2,6 km/h (1 Bft)
07.11.2012 08:10 0,6 C 97 % 0,0 l/m 3,1 km/h (1 Bft) N 360 0,2 C -0,4 C 6,4 km/h (2 Bft)
07.11.2012 08:15 0,7 C 97 % 0,0 l/m 3,7 km/h (1 Bft) N 360 0,3 C -0,7 C 7,6 km/h (2 Bft)
07.11.2012 08:20 0,8 C 96 % 0,0 l/m 3,2 km/h (1 Bft) N 360 0,2 C -0,3 C 1,6 km/h (1 Bft)
07.11.2012 08:25 0,8 C 96 % 0,0 l/m 2,1 km/h (1 Bft) N 360 0,2 C 0,3 C 0,0 km/h (0 Bft)
07.11.2012 08:30 0,9 C 96 % 0,0 l/m 1,4 km/h (1 Bft) N 360 0,3 C 0,3 C 5,1 km/h (1 Bft)
07.11.2012 08:35 1,0 C 96 % 0,0 l/m 1,4 km/h (1 Bft) N 360 0,4 C 0,4 C 2,7 km/h (1 Bft)
07.11.2012 08:40 1,1 C 96 % 0,0 l/m 2,7 km/h (1 Bft) N 360 0,5 C 0,5 C 3,4 km/h (1 Bft)
07.11.2012 08:45 1,1 C 95 % 0,0 l/m 3,1 km/h (1 Bft) N 360 0,4 C 0,4 C 3,9 km/h (1 Bft)
07.11.2012 08:50 1,3 C 95 % 0,0 l/m 3,4 km/h (1 Bft) NO 45 0,6 C 0,6 C 10,9 km/h (2 Bft)
07.11.2012 08:55 1,4 C 94 % 0,0 l/m 3,4 km/h (1 Bft) O-SO 112 0,5 C 0,7 C 5,0 km/h (1 Bft)
07.11.2012 09:00 1,4 C 94 % 0,0 l/m 2,6 km/h (1 Bft) NO 45 0,5 C 1,6 C 2,4 km/h (1 Bft)
07.11.2012 09:05 1,5 C 94 % 0,0 l/m 2,9 km/h (1 Bft) O 90 0,6 C 1,6 C 3,9 km/h (1 Bft)
07.11.2012 09:10 1,7 C 93 % 0,7 l/m 3,1 km/h (1 Bft) SO 135 0,7 C 1,6 C 5,3 km/h (1 Bft)
07.11.2012 09:15 1,8 C 92 % 0,0 l/m 3,4 km/h (1 Bft) O-NO 67 0,6 C 1,5 C 4,5 km/h (1 Bft)
07.11.2012 09:20 1,9 C 90 % 0,0 l/m 4,0 km/h (1 Bft) O-SO 112 0,4 C 1,4 C 11,4 km/h (2 Bft)
07.11.2012 09:25 1,9 C 89 % 0,0 l/m 3,7 km/h (1 Bft) N-NO 22 0,3 C 1,8 C 4,8 km/h (1 Bft)
07.11.2012 09:30 2,1 C 88 % 0,0 l/m 3,1 km/h (1 Bft) O 90 0,3 C 2,3 C 4,7 km/h (1 Bft)
07.11.2012 09:35 2,2 C 88 % 0,0 l/m 3,2 km/h (1 Bft) O 90 0,4 C 2,4 C 4,3 km/h (1 Bft)
07.11.2012 09:40 2,5 C 85 % 0,0 l/m 3,4 km/h (1 Bft) NO 45 0,2 C 2,5 C 4,8 km/h (1 Bft)
07.11.2012 09:45 2,7 C 85 % 0,0 l/m 3,4 km/h (1 Bft) O 90 0,4 C 2,7 C 4,3 km/h (1 Bft)
07.11.2012 09:50 2,9 C 85 % 0,0 l/m 4,7 km/h (1 Bft) O-SO 112 0,6 C 2,4 C 14,2 km/h (3 Bft)
07.11.2012 09:55 3,1 C 83 % 0,0 l/m 5,3 km/h (1 Bft) SO 135 0,5 C 2,4 C 5,0 km/h (1 Bft)
07.11.2012 10:00 3,4 C 84 % 0,0 l/m 5,0 km/h (1 Bft) O-SO 112 1,0 C 2,9 C 8,7 km/h (2 Bft)
07.11.2012 10:05 3,4 C 81 % 0,0 l/m 4,8 km/h (1 Bft) O-SO 112 0,5 C 3,3 C 5,0 km/h (1 Bft)
07.11.2012 10:10 3,4 C 81 % 0,0 l/m 5,3 km/h (1 Bft) O-SO 112 0,5 C 3,1 C 9,0 km/h (2 Bft)
07.11.2012 10:15 3,7 C 81 % 0,0 l/m 5,8 km/h (2 Bft) O-SO 112 0,7 C 2,9 C 8,5 km/h (2 Bft)
07.11.2012 10:20 3,9 C 78 % 0,0 l/m 6,0 km/h (2 Bft) O-SO 112 0,4 C 3,7 C 10,1 km/h (2 Bft)
07.11.2012 10:25 4,1 C 80 % 0,0 l/m 5,6 km/h (1 Bft) O-SO 112 1,0 C 4,2 C 6,6 km/h (2 Bft)
07.11.2012 10:30 4,5 C 80 % 0,0 l/m 5,5 km/h (1 Bft) O-SO 112 1,4 C 4,4 C 12,1 km/h (2 Bft)
07.11.2012 10:35 4,7 C 79 % 0,0 l/m 5,0 km/h (1 Bft) NO 45 1,4 C 4,9 C 7,4 km/h (2 Bft)
07.11.2012 10:40 4,8 C 79 % 0,0 l/m 4,8 km/h (1 Bft) SO 135 1,5 C 5,5 C 6,9 km/h (2 Bft)
07.11.2012 10:45 4,5 C 79 % 0,0 l/m 4,8 km/h (1 Bft) O 90 1,2 C 5,2 C 5,8 km/h (2 Bft)
07.11.2012 10:50 4,4 C 79 % 0,0 l/m 5,6 km/h (1 Bft) O 90 1,1 C 4,4 C 6,6 km/h (2 Bft)
07.11.2012 10:55 4,6 C 80 % 0,0 l/m 5,8 km/h (2 Bft) O 90 1,5 C 4,3 C 7,9 km/h (2 Bft)
07.11.2012 11:00 4,9 C 81 % 0,0 l/m 4,8 km/h (1 Bft) O 90 1,9 C 4,9 C 6,6 km/h (2 Bft)
07.11.2012 11:05 5,1 C 81 % 0,0 l/m 4,3 km/h (1 Bft) O 90 2,1 C 5,3 C 6,1 km/h (2 Bft)
07.11.2012 11:10 4,8 C 77 % 0,0 l/m 5,5 km/h (1 Bft) O-SO 112 1,1 C 4,9 C 3,7 km/h (1 Bft)
07.11.2012 11:15 4,8 C 78 % 0,0 l/m 5,5 km/h (1 Bft) O 90 1,3 C 4,8 C 6,9 km/h (2 Bft)
07.11.2012 11:20 4,8 C 80 % 0,0 l/m 4,7 km/h (1 Bft) O-SO 112 1,6 C 5,0 C 6,1 km/h (2 Bft)
07.11.2012 11:25 4,8 C 81 % 0,0 l/m 6,1 km/h (2 Bft) O-SO 112 1,8 C 4,4 C 7,9 km/h (2 Bft)
07.11.2012 11:30 4,8 C 81 % 0,0 l/m 6,0 km/h (2 Bft) NO 45 1,8 C 4,3 C 15,1 km/h (3 Bft)
07.11.2012 11:35 5,2 C 80 % 0,0 l/m 5,3 km/h (1 Bft) O-SO 112 2,0 C 4,8 C 6,8 km/h (2 Bft)
07.11.2012 11:40 5,5 C 79 % 0,0 l/m 6,9 km/h (2 Bft) O-SO 112 2,2 C 4,3 C 18,7 km/h (3 Bft)
07.11.2012 11:45 5,5 C 78 % 0,0 l/m 8,2 km/h (2 Bft) O-NO 67 2,0 C 3,1 C 9,0 km/h (2 Bft)
07.11.2012 11:50 5,6 C 77 % 0,0 l/m 8,4 km/h (2 Bft) O-SO 112 1,9 C 3,0 C 9,0 km/h (2 Bft)
07.11.2012 11:55 5,6 C 77 % 0,0 l/m 8,2 km/h (2 Bft) O-SO 112 1,9 C 3,2 C 8,4 km/h (2 Bft)
07.11.2012 12:00 5,4 C 76 % 0,0 l/m 8,0 km/h (2 Bft) S-SW 202 1,5 C 3,3 C 8,2 km/h (2 Bft)
07.11.2012 12:05 5,4 C 76 % 0,0 l/m 8,5 km/h (2 Bft) SO 135 1,5 C 2,9 C 15,4 km/h (3 Bft)
07.11.2012 12:10 5,2 C 77 % 0,0 l/m 7,2 km/h (2 Bft) O-SO 112 1,5 C 3,9 C 8,4 km/h (2 Bft)
07.11.2012 12:15 5,3 C 77 % 0,0 l/m 6,6 km/h (2 Bft) SO 135 1,6 C 4,5 C 10,6 km/h (2 Bft)
07.11.2012 12:20 5,4 C 75 % 0,0 l/m 6,1 km/h (2 Bft) O-SO 112 1,3 C 5,1 C 9,0 km/h (2 Bft)
07.11.2012 12:25 5,6 C 77 % 0,0 l/m 6,3 km/h (2 Bft) O-SO 112 1,9 C 5,0 C 6,4 km/h (2 Bft)
07.11.2012 12:30 5,6 C 77 % 0,0 l/m 5,3 km/h (1 Bft) O-SO 112 1,9 C 5,6 C 4,8 km/h (1 Bft)
07.11.2012 12:35 5,6 C 76 % 0,0 l/m 4,7 km/h (1 Bft) O-SO 112 1,7 C 5,9 C 6,1 km/h (2 Bft)
07.11.2012 12:40 5,5 C 73 % 0,0 l/m 4,7 km/h (1 Bft) O 90 1,1 C 5,8 C 3,5 km/h (1 Bft)
07.11.2012 12:45 5,5 C 75 % 0,0 l/m 5,0 km/h (1 Bft) O-SO 112 1,4 C 5,8 C 6,1 km/h (2 Bft)
07.11.2012 12:50 5,6 C 78 % 0,0 l/m 4,7 km/h (1 Bft) O-SO 112 2,1 C 5,9 C 6,1 km/h (2 Bft)
07.11.2012 12:55 5,7 C 78 % 0,0 l/m 4,8 km/h (1 Bft) O-SO 112 2,2 C 5,8 C 6,0 km/h (2 Bft)
07.11.2012 13:00 5,6 C 78 % 0,0 l/m 5,1 km/h (1 Bft) O-SO 112 2,1 C 5,6 C 9,8 km/h (2 Bft)
07.11.2012 13:05 5,6 C 79 % 0,0 l/m 5,0 km/h (1 Bft) O-SO 112 2,3 C 5,7 C 7,4 km/h (2 Bft)
07.11.2012 13:10 5,5 C 77 % 0,0 l/m 5,8 km/h (2 Bft) W 270 1,8 C 5,4 C 9,7 km/h (2 Bft)
07.11.2012 13:15 5,5 C 74 % 0,0 l/m 6,0 km/h (2 Bft) W-SW 247 1,2 C 5,2 C 3,7 km/h (1 Bft)
07.11.2012 13:20 5,6 C 78 % 0,0 l/m 4,7 km/h (1 Bft) O 90 2,1 C 5,8 C 2,6 km/h (1 Bft)
07.11.2012 13:25 5,8 C 79 % 0,0 l/m 3,4 km/h (1 Bft) O-SO 112 2,4 C 6,3 C 2,6 km/h (1 Bft)
07.11.2012 13:30 5,7 C 81 % 0,0 l/m 2,6 km/h (1 Bft) SO 135 2,7 C 6,5 C 3,5 km/h (1 Bft)
07.11.2012 13:35 5,6 C 79 % 0,0 l/m 3,2 km/h (1 Bft) SO 135 2,3 C 6,5 C 5,5 km/h (1 Bft)
07.11.2012 13:40 5,5 C 78 % 0,0 l/m 4,0 km/h (1 Bft) O-SO 112 2,0 C 6,1 C 4,3 km/h (1 Bft)
07.11.2012 13:45 5,4 C 78 % 0,0 l/m 4,5 km/h (1 Bft) O-SO 112 1,9 C 5,7 C 3,9 km/h (1 Bft)
07.11.2012 13:50 5,4 C 78 % 0,0 l/m 4,0 km/h (1 Bft) NW 315 1,9 C 5,8 C 3,1 km/h (1 Bft)
07.11.2012 13:55 5,4 C 77 % 0,0 l/m 3,7 km/h (1 Bft) O-SO 112 1,7 C 6,0 C 5,3 km/h (1 Bft)
07.11.2012 14:00 5,5 C 75 % 0,0 l/m 4,2 km/h (1 Bft) SO 135 1,4 C 5,8 C 5,3 km/h (1 Bft)
07.11.2012 14:05 5,6 C 75 % 0,0 l/m 4,7 km/h (1 Bft) O 90 1,5 C 5,6 C 8,5 km/h (2 Bft)
07.11.2012 14:10 5,7 C 76 % 0,0 l/m 4,5 km/h (1 Bft) SO 135 1,8 C 5,8 C 3,5 km/h (1 Bft)
07.11.2012 14:15 5,8 C 75 % 0,0 l/m 4,7 km/h (1 Bft) O 90 1,7 C 5,8 C 6,4 km/h (2 Bft)
07.11.2012 14:20 5,9 C 73 % 0,0 l/m 4,7 km/h (1 Bft) O-SO 112 1,4 C 6,0 C 6,6 km/h (2 Bft)
07.11.2012 14:25 5,9 C 75 % 0,0 l/m 4,5 km/h (1 Bft) S 180 1,8 C 6,1 C 6,1 km/h (2 Bft)
07.11.2012 14:30 5,9 C 73 % 0,0 l/m 4,8 km/h (1 Bft) O 90 1,4 C 5,9 C 4,7 km/h (1 Bft)
07.11.2012 14:35 6,0 C 74 % 0,0 l/m 4,8 km/h (1 Bft) S-SO 157 1,7 C 6,1 C 5,0 km/h (1 Bft)
07.11.2012 14:40 6,1 C 70 % 0,0 l/m 4,5 km/h (1 Bft) O-SO 112 1,0 C 6,2 C 6,4 km/h (2 Bft)
07.11.2012 14:45 6,2 C 72 % 0,0 l/m 4,5 km/h (1 Bft) SO 135 1,5 C 6,3 C 7,6 km/h (2 Bft)
07.11.2012 14:50 6,2 C 72 % 0,0 l/m 4,5 km/h (1 Bft) SO 135 1,5 C 6,4 C 3,2 km/h (1 Bft)
07.11.2012 14:55 6,2 C 74 % 0,0 l/m 4,7 km/h (1 Bft) O-SO 112 1,9 C 6,3 C 6,4 km/h (2 Bft)
07.11.2012 15:00 6,3 C 73 % 0,0 l/m 3,5 km/h (1 Bft) O-SO 112 1,8 C 6,7 C 5,0 km/h (1 Bft)
07.11.2012 15:05 6,3 C 71 % 0,0 l/m 4,2 km/h (1 Bft) O 90 1,4 C 6,5 C 6,0 km/h (2 Bft)
07.11.2012 15:10 6,2 C 70 % 0,0 l/m 4,8 km/h (1 Bft) O-SO 112 1,1 C 6,2 C 5,3 km/h (1 Bft)
07.11.2012 15:15 6,2 C 71 % 0,0 l/m 4,8 km/h (1 Bft) O-SO 112 1,3 C 6,2 C 6,1 km/h (2 Bft)
07.11.2012 15:20 6,3 C 70 % 0,0 l/m 4,5 km/h (1 Bft) O 90 1,2 C 6,3 C 1,8 km/h (1 Bft)
07.11.2012 15:25 6,3 C 67 % 0,0 l/m 5,0 km/h (1 Bft) O-SO 112 0,6 C 6,2 C 9,0 km/h (2 Bft)
07.11.2012 15:30 6,3 C 70 % 0,0 l/m 5,0 km/h (1 Bft) O 90 1,2 C 6,3 C 4,2 km/h (1 Bft)
07.11.2012 15:35 6,3 C 70 % 0,0 l/m 4,5 km/h (1 Bft) O-SO 112 1,2 C 6,5 C 5,8 km/h (2 Bft)
07.11.2012 15:40 6,2 C 69 % 0,0 l/m 4,2 km/h (1 Bft) O-SO 112 0,9 C 6,5 C 8,7 km/h (2 Bft)
07.11.2012 15:45 6,1 C 68 % 0,0 l/m 3,7 km/h (1 Bft) NO 45 0,6 C 6,6 C 4,3 km/h (1 Bft)
07.11.2012 15:50 5,9 C 73 % 0,0 l/m 3,4 km/h (1 Bft) O 90 1,4 C 6,4 C 2,6 km/h (1 Bft)
07.11.2012 15:55 5,9 C 71 % 0,0 l/m 3,1 km/h (1 Bft) O-SO 112 1,1 C 6,4 C 2,3 km/h (1 Bft)
07.11.2012 16:00 5,8 C 71 % 0,0 l/m 3,1 km/h (1 Bft) O-SO 112 1,0 C 6,3 C 3,4 km/h (1 Bft)
07.11.2012 16:05 5,8 C 70 % 0,0 l/m 3,7 km/h (1 Bft) O-SO 112 0,8 C 6,1 C 5,3 km/h (1 Bft)
07.11.2012 16:10 5,7 C 69 % 0,0 l/m 3,7 km/h (1 Bft) O-SO 112 0,5 C 6,0 C 4,3 km/h (1 Bft)
07.11.2012 16:15 5,6 C 70 % 0,0 l/m 3,2 km/h (1 Bft) O-SO 112 0,6 C 6,1 C 2,3 km/h (1 Bft)
07.11.2012 16:20 5,4 C 71 % 0,0 l/m 2,4 km/h (1 Bft) O-SO 112 0,6 C 5,9 C 5,6 km/h (1 Bft)
07.11.2012 16:25 5,4 C 70 % 0,0 l/m 2,1 km/h (1 Bft) O-SO 112 0,4 C 5,8 C 4,7 km/h (1 Bft)
07.11.2012 16:30 5,1 C 69 % 0,0 l/m 3,2 km/h (1 Bft) O 90 -0,1 C 5,6 C 7,1 km/h (2 Bft)
07.11.2012 16:35 5,0 C 68 % 0,0 l/m 3,7 km/h (1 Bft) O-SO 112 -0,4 C 5,2 C 6,9 km/h (2 Bft)
07.11.2012 16:40 4,6 C 70 % 0,0 l/m 4,0 km/h (1 Bft) O-SO 112 -0,4 C 4,7 C 6,4 km/h (2 Bft)
07.11.2012 16:45 4,4 C 71 % 0,0 l/m 3,5 km/h (1 Bft) SO 135 -0,4 C 4,6 C 3,1 km/h (1 Bft)
07.11.2012 16:50 4,1 C 72 % 0,0 l/m 2,6 km/h (1 Bft) O 90 -0,5 C 4,4 C 2,4 km/h (1 Bft)
07.11.2012 16:55 4,0 C 72 % 0,0 l/m 2,1 km/h (1 Bft) N-NO 22 -0,6 C 4,2 C 1,8 km/h (1 Bft)
07.11.2012 17:00 3,9 C 73 % 0,0 l/m 1,4 km/h (1 Bft) NO 45 -0,5 C 3,9 C 2,3 km/h (1 Bft)
07.11.2012 17:05 3,8 C 73 % 0,0 l/m 0,8 km/h (0 Bft) NO 45 -0,6 C 3,7 C 0,0 km/h (0 Bft)
07.11.2012 17:10 3,7 C 74 % 0,0 l/m 0,3 km/h (0 Bft) N-NO 22 -0,5 C 3,5 C 0,0 km/h (0 Bft)
07.11.2012 17:15 3,4 C 75 % 0,0 l/m 0,0 km/h (0 Bft) O 90 -0,6 C 3,2 C 0,0 km/h (0 Bft)
07.11.2012 17:20 3,1 C 76 % 0,0 l/m 0,0 km/h (0 Bft) O-SO 112 -0,7 C 2,9 C 0,0 km/h (0 Bft)
07.11.2012 17:25 3,1 C 77 % 0,0 l/m 0,2 km/h (0 Bft) NO 45 -0,5 C 2,7 C 1,6 km/h (1 Bft)
07.11.2012 17:30 3,1 C 78 % 0,0 l/m 0,2 km/h (0 Bft) S 180 -0,4 C 2,5 C 0,0 km/h (0 Bft)
07.11.2012 17:35 3,0 C 78 % 0,0 l/m 0,3 km/h (0 Bft) N-NW 337 -0,5 C 2,4 C 0,0 km/h (0 Bft)
07.11.2012 17:40 2,8 C 79 % 0,0 l/m 0,8 km/h (0 Bft) N-NO 22 -0,5 C 2,2 C 3,5 km/h (1 Bft)
07.11.2012 17:45 2,7 C 79 % 0,0 l/m 1,1 km/h (1 Bft) N-NO 22 -0,6 C 2,1 C 2,6 km/h (1 Bft)
07.11.2012 17:50 2,7 C 79 % 0,0 l/m 1,1 km/h (1 Bft) N 360 -0,6 C 2,0 C 1,9 km/h (1 Bft)
07.11.2012 17:55 2,5 C 78 % 0,0 l/m 1,3 km/h (1 Bft) O-NO 67 -0,9 C 1,9 C 2,9 km/h (1 Bft)
07.11.2012 18:00 2,3 C 79 % 0,0 l/m 1,0 km/h (0 Bft) N-NO 22 -1,0 C 1,7 C 0,0 km/h (0 Bft)
07.11.2012 18:05 2,0 C 79 % 0,0 l/m 0,5 km/h (0 Bft) N 360 -1,2 C 1,5 C 0,0 km/h (0 Bft)
07.11.2012 18:10 1,7 C 80 % 0,0 l/m 0,2 km/h (0 Bft) W-NW 292 -1,4 C 1,1 C 0,0 km/h (0 Bft)
07.11.2012 18:15 1,6 C 81 % 0,0 l/m 0,2 km/h (0 Bft) N-NO 22 -1,3 C 0,8 C 0,0 km/h (0 Bft)
07.11.2012 18:20 1,6 C 82 % 0,0 l/m 0,3 km/h (0 Bft) N 360 -1,1 C 0,5 C 3,1 km/h (1 Bft)
07.11.2012 18:25 1,6 C 82 % 0,0 l/m 0,5 km/h (0 Bft) NO 45 -1,1 C 0,5 C 0,0 km/h (0 Bft)
07.11.2012 18:30 1,6 C 83 % 0,0 l/m 0,8 km/h (0 Bft) NO 45 -1,0 C 0,5 C 0,0 km/h (0 Bft)
07.11.2012 18:35 1,4 C 83 % 0,0 l/m 0,3 km/h (0 Bft) O 90 -1,2 C 0,5 C 0,0 km/h (0 Bft)
07.11.2012 18:40 1,1 C 83 % 0,0 l/m 0,2 km/h (0 Bft) N-NO 22 -1,5 C 0,3 C 2,4 km/h (1 Bft)
07.11.2012 18:45 1,1 C 83 % 0,0 l/m 0,2 km/h (0 Bft) N 360 -1,5 C 0,1 C 2,7 km/h (1 Bft)
07.11.2012 18:50 1,1 C 84 % 0,0 l/m 0,3 km/h (0 Bft) NO 45 -1,3 C 0,1 C 0,0 km/h (0 Bft)
07.11.2012 18:55 1,1 C 84 % 0,0 l/m 0,5 km/h (0 Bft) N 360 -1,3 C 0,0 C 2,3 km/h (1 Bft)
07.11.2012 19:00 1,1 C 85 % 0,0 l/m 0,8 km/h (0 Bft) N 360 -1,1 C 0,1 C 2,6 km/h (1 Bft)
07.11.2012 19:05 1,1 C 85 % 0,0 l/m 1,1 km/h (1 Bft) N 360 -1,1 C 0,1 C 3,7 km/h (1 Bft)
07.11.2012 19:10 0,9 C 85 % 0,0 l/m 1,4 km/h (1 Bft) N 360 -1,3 C 0,1 C 2,6 km/h (1 Bft)
07.11.2012 19:15 0,9 C 86 % 0,0 l/m 1,4 km/h (1 Bft) N 360 -1,2 C 0,0 C 2,7 km/h (1 Bft)
07.11.2012 19:20 0,8 C 86 % 0,0 l/m 1,4 km/h (1 Bft) N-NO 22 -1,3 C 0,0 C 0,0 km/h (0 Bft)
07.11.2012 19:25 0,8 C 86 % 0,0 l/m 1,8 km/h (1 Bft) NO 45 -1,3 C -0,1 C 2,1 km/h (1 Bft)
07.11.2012 19:30 0,7 C 87 % 0,0 l/m 0,8 km/h (0 Bft) NO 45 -1,2 C -0,3 C 0,0 km/h (0 Bft)
07.11.2012 19:35 0,6 C 87 % 0,0 l/m 0,6 km/h (0 Bft) NO 45 -1,3 C -0,4 C 3,1 km/h (1 Bft)
07.11.2012 19:40 0,5 C 87 % 0,0 l/m 0,5 km/h (0 Bft) N 360 -1,4 C -0,6 C 0,0 km/h (0 Bft)
07.11.2012 19:45 0,4 C 88 % 0,0 l/m 0,3 km/h (0 Bft) N-NO 22 -1,3 C -0,6 C 0,0 km/h (0 Bft)
07.11.2012 19:50 0,4 C 88 % 0,0 l/m 0,3 km/h (0 Bft) NO 45 -1,3 C -0,7 C 0,0 km/h (0 Bft)
07.11.2012 19:55 0,3 C 88 % 0,0 l/m 0,6 km/h (0 Bft) N 360 -1,4 C -0,8 C 0,0 km/h (0 Bft)
07.11.2012 20:00 -0,2 C 88 % 0,0 l/m 0,5 km/h (0 Bft) W-NW 292 -1,9 C -1,0 C 0,0 km/h (0 Bft)
07.11.2012 20:05 -0,2 C 88 % 0,0 l/m 0,0 km/h (0 Bft) N-NO 22 -1,9 C -1,2 C 0,0 km/h (0 Bft)
07.11.2012 20:10 -0,1 C 88 % 0,0 l/m 0,0 km/h (0 Bft) N-NO 22 -1,8 C -1,2 C 0,0 km/h (0 Bft)
07.11.2012 20:15 -0,2 C 88 % 0,0 l/m 0,0 km/h (0 Bft) SO 135 -1,9 C -1,3 C 0,0 km/h (0 Bft)
07.11.2012 20:20 -0,4 C 88 % 0,0 l/m 0,0 km/h (0 Bft) N 360 -2,1 C -1,4 C 0,0 km/h (0 Bft)
07.11.2012 20:25 -0,5 C 88 % 0,0 l/m 0,0 km/h (0 Bft) N-NO 22 -2,2 C -1,6 C 0,0 km/h (0 Bft)
07.11.2012 20:30 -0,4 C 89 % 0,0 l/m 0,3 km/h (0 Bft) N-NO 22 -2,0 C -1,7 C 0,0 km/h (0 Bft)
07.11.2012 20:35 -0,6 C 89 % 0,0 l/m 0,3 km/h (0 Bft) N-NO 22 -2,2 C -1,6 C 0,0 km/h (0 Bft)
07.11.2012 20:40 -0,6 C 89 % 0,0 l/m 0,0 km/h (0 Bft) O 90 -2,2 C -1,7 C 0,0 km/h (0 Bft)
07.11.2012 20:45 -0,4 C 89 % 0,0 l/m 0,0 km/h (0 Bft) NO 45 -2,0 C -1,8 C 0,0 km/h (0 Bft)
07.11.2012 20:50 -0,3 C 89 % 0,0 l/m 0,0 km/h (0 Bft) NW 315 -1,9 C -1,6 C 0,0 km/h (0 Bft)
07.11.2012 20:55 -0,3 C 90 % 0,0 l/m 0,0 km/h (0 Bft) N-NO 22 -1,7 C -1,5 C 0,0 km/h (0 Bft)
07.11.2012 21:00 -0,4 C 90 % 0,0 l/m 0,0 km/h (0 Bft) N 360 -1,8 C -1,6 C 0,0 km/h (0 Bft)
07.11.2012 21:05 -0,5 C 90 % 0,0 l/m 0,0 km/h (0 Bft) W-NW 292 -1,9 C -1,7 C 0,0 km/h (0 Bft)
07.11.2012 21:10 -1,0 C 90 % 0,0 l/m 0,0 km/h (0 Bft) NW 315 -2,4 C -1,9 C 0,0 km/h (0 Bft)
07.11.2012 21:15 -1,2 C 90 % 0,0 l/m 0,0 km/h (0 Bft) N 360 -2,6 C -1,9 C 0,0 km/h (0 Bft)
07.11.2012 21:20 -0,8 C 90 % 0,0 l/m 0,0 km/h (0 Bft) N 360 -2,2 C -2,0 C 0,0 km/h (0 Bft)
07.11.2012 21:25 -0,5 C 90 % 0,0 l/m 0,0 km/h (0 Bft) NO 45 -1,9 C -1,9 C 0,0 km/h (0 Bft)
07.11.2012 21:30 -0,5 C 91 % 0,0 l/m 0,0 km/h (0 Bft) N-NO 22 -1,8 C -1,8 C 0,0 km/h (0 Bft)
07.11.2012 21:35 -0,8 C 91 % 0,0 l/m 0,0 km/h (0 Bft) W 270 -2,1 C -1,8 C 0,0 km/h (0 Bft)
07.11.2012 21:40 -0,8 C 91 % 0,0 l/m 0,0 km/h (0 Bft) N 360 -2,1 C -2,0 C 0,0 km/h (0 Bft)
07.11.2012 21:45 -0,3 C 91 % 0,0 l/m 0,0 km/h (0 Bft) N-NO 22 -1,6 C -1,9 C 0,0 km/h (0 Bft)
07.11.2012 21:50 -0,2 C 91 % 0,0 l/m 0,0 km/h (0 Bft) NO 45 -1,5 C -1,5 C 0,0 km/h (0 Bft)
07.11.2012 21:55 -0,2 C 92 % 0,0 l/m 0,2 km/h (0 Bft) N-NO 22 -1,3 C -1,3 C 0,0 km/h (0 Bft)
07.11.2012 22:00 0,0 C 92 % 0,0 l/m 0,2 km/h (0 Bft) N-NO 22 -1,1 C -1,2 C 0,0 km/h (0 Bft)
07.11.2012 22:05 0,0 C 92 % 0,0 l/m 0,2 km/h (0 Bft) N-NO 22 -1,1 C -1,1 C 0,0 km/h (0 Bft)
07.11.2012 22:10 -0,5 C 91 % 0,0 l/m 0,6 km/h (0 Bft) NO 45 -1,8 C -1,2 C 2,3 km/h (1 Bft)
07.11.2012 22:15 -0,8 C 91 % 0,0 l/m 0,8 km/h (0 Bft) O 90 -2,1 C -1,4 C 1,9 km/h (1 Bft)
07.11.2012 22:20 -0,7 C 92 % 0,0 l/m 0,8 km/h (0 Bft) N 360 -1,8 C -1,6 C 0,0 km/h (0 Bft)
07.11.2012 22:25 -1,0 C 91 % 0,0 l/m 0,5 km/h (0 Bft) W 270 -2,3 C -1,8 C 0,0 km/h (0 Bft)
07.11.2012 22:30 -1,2 C 91 % 0,0 l/m 0,2 km/h (0 Bft) NW 315 -2,5 C -2,2 C 2,1 km/h (1 Bft)
07.11.2012 22:35 -1,1 C 92 % 0,0 l/m 0,3 km/h (0 Bft) N-NW 337 -2,2 C -2,1 C 0,0 km/h (0 Bft)
07.11.2012 22:40 -1,3 C 91 % 0,0 l/m 0,3 km/h (0 Bft) N-NW 337 -2,6 C -2,2 C 0,0 km/h (0 Bft)
07.11.2012 22:45 -1,2 C 92 % 0,0 l/m 0,0 km/h (0 Bft) NW 315 -2,3 C -2,2 C 0,0 km/h (0 Bft)
07.11.2012 22:50 -1,7 C 91 % 0,0 l/m 0,0 km/h (0 Bft) W 270 -3,0 C -2,4 C 0,0 km/h (0 Bft)
07.11.2012 22:55 -1,6 C 91 % 0,0 l/m 0,0 km/h (0 Bft) N-NW 337 -2,9 C -2,5 C 0,0 km/h (0 Bft)
07.11.2012 23:00 -1,6 C 92 % 0,0 l/m 0,0 km/h (0 Bft) N 360 -2,7 C -2,6 C 0,0 km/h (0 Bft)
07.11.2012 23:05 -1,7 C 92 % 0,0 l/m 0,0 km/h (0 Bft) N 360 -2,8 C -2,6 C 0,0 km/h (0 Bft)
07.11.2012 23:10 -2,0 C 91 % 0,0 l/m 0,0 km/h (0 Bft) N-NW 337 -3,3 C -2,6 C 0,0 km/h (0 Bft)
07.11.2012 23:15 -1,9 C 91 % 0,0 l/m 0,0 km/h (0 Bft) W-NW 292 -3,2 C -2,5 C 0,0 km/h (0 Bft)
07.11.2012 23:20 -1,6 C 92 % 0,0 l/m 0,0 km/h (0 Bft) S-SW 202 -2,7 C -2,7 C 0,0 km/h (0 Bft)
07.11.2012 23:25 -1,8 C 92 % 0,0 l/m 0,0 km/h (0 Bft) NO 45 -2,9 C -2,6 C 0,0 km/h (0 Bft)
07.11.2012 23:30 -1,8 C 92 % 0,0 l/m 0,0 km/h (0 Bft) S-SO 157 -2,9 C -2,6 C 0,0 km/h (0 Bft)
07.11.2012 23:35 -1,8 C 92 % 0,0 l/m 0,0 km/h (0 Bft) NO 45 -2,9 C -2,7 C 0,0 km/h (0 Bft)
07.11.2012 23:40 -1,7 C 92 % 0,0 l/m 0,0 km/h (0 Bft) N 360 -2,8 C -2,6 C 0,0 km/h (0 Bft)
07.11.2012 23:45 -1,6 C 92 % 0,0 l/m 0,0 km/h (0 Bft) N 360 -2,7 C -2,6 C 0,0 km/h (0 Bft)
07.11.2012 23:50 -1,2 C 92 % 0,0 l/m 0,2 km/h (0 Bft) N-NO 22 -2,3 C -2,3 C 0,0 km/h (0 Bft)
07.11.2012 23:55 -1,5 C 92 % 0,0 l/m 0,2 km/h (0 Bft) N-NW 337 -2,6 C -2,2 C 0,0 km/h (0 Bft)
_ Min-Zeit 03:50 15:25 - 23:45 - - 23:10 03:55 23:55
Minimum _ -2,5 C 67 % - 0,0 km/h (0 Bft) - - -3,3 C -3,2 C 0,0 km/h (0 Bft)
_ Max-Zeit 15:35 08:15 09:10 12:05 - - 13:30 15:00 11:40
Maximum _ 6,3 C 97 % 0,7 l/m 8,5 km/h
SO (2 Bft)
- - 2,7 C 6,7 C 18,7 km/h
O-SO (3 Bft)
Durchschnitt _ 1,3 C 87 % #0,7 l/m 2,2 km/h (1 Bft) N - -0,6 C 0,7 C 3,2 km/h (1 Bft)